Location: Malvern Link
(52.1333°N, 2.3000°W)
Time: 17:56:45
(UTC+00:00)

QB50P2 - Pass Details

Date: 01 July 2022
Orbit: 590 x 605 km, 97.9° (Epoch: 18 August)

Event Time Altitude Azimuth Distance (km) Brightness Sun altitude
Rises 01:38:53 0° 15° (NNE) 2,862 ? -12.4°
Reaches altitude 10° 01:41:04 10° 17° (NNE) 1,957 ? -12.3°
Maximum altitude 01:45:19 76° 104° (ESE) 628 ? -12.1°
Enters shadow 01:48:34 17° 189° (S) 1,550 ? -11.9°
